{"data":{"norad_id":67018,"intl_designator":"2025-293R","name":"STARLINK-36106","alt_names":[],"object_type":"PAYLOAD","status":"ACTIVE","operator":null,"country":"US","launch_date":"2025-12-10","launch_site_code":"AFWTR","launch_vehicle":null,"mission":null,"orbit_class":"UNKNOWN","rcs_meters":null,"size_class":null,"mass_kg":null,"dimensions":null,"purposes":["comms"],"wikipedia_slug":null,"has_3d_model":false,"image_url":null,"decayed_at":null,"tle_current":{"epoch":"2026-09-20T13:54:55.815552Z","epoch_age_seconds":74801,"freshness":"FRESH","line1":"1 67018U 25293R   26263.57981268  .00001776  00000+0  15661-3 0  9990","line2":"2 67018  70.0017 322.9410 0003686 269.8856  90.1881 14.98334324 44081","mean_motion":14.98334324,"eccentricity":0.0003686,"inclination_deg":70.0017,"raan_deg":322.941,"arg_perigee_deg":269.8856,"mean_anomaly_deg":90.1881,"bstar":0.00015661,"rev_number":4408,"period_min":96.106721773264,"perigee_km":569.48068319242,"apogee_km":574.6043555341,"semimajor_km":6950.1795193633,"source":"CELESTRAK","updated_at":"2026-09-21T09:00:36.071416Z"}}}